Panagia Faneromeni — SW9785 — position and weather

sailwx.info

Track history (hours):
 
Tides and Currents Weather Stations Pressure Air Temp Water Temp Dewpoint Dewpoint Depression Visibility Wind Speed Wind Dir Waves Ship Positions

Panagia Faneromeni

Last reported at 2014-Oct-22 23:23 UTC. Time now 2014-Oct-23 00:35 UTC.
Position N 36°46' E 024°32'.

Length 33 m; draft 2 m.

Type: Ship. MMSI: 237071900.

Date/timePositionNaut miles runAvg speedWind from/ knotsBaromVisibWave heightAir tempDewpointWater temp
2014-Oct-22 23:23N 36°46' E 024°32'0 0.0
2014-Oct-22 22:28N 36°46' E 024°32'0 0.0
2014-Oct-22 21:31N 36°46' E 024°32'0 0.0
2014-Oct-22 20:29N 36°46' E 024°32'0 0.0
2014-Oct-22 19:17N 36°46' E 024°32'0 0.0
2014-Oct-22 18:17N 36°46' E 024°32'0 0.0
2014-Oct-22 17:29N 36°46' E 024°32'0 0.0
2014-Oct-22 16:29N 36°46' E 024°32'0 0.0
2014-Oct-22 15:29N 36°46' E 024°32'0 0.0
2014-Oct-22 14:29N 36°46' E 024°32'0 0.0
2014-Oct-22 13:29N 36°46' E 024°32'0 0.0
2014-Oct-22 12:28N 36°46' E 024°32'0 0.0
2014-Oct-22 11:29N 36°46' E 024°32'3 0.5
2014-Oct-22 06:15N 36°47' E 024°35'0 0.0
2014-Oct-22 05:33N 36°47' E 024°35'1 1.3
2014-Oct-22 04:32N 36°46' E 024°34'1 1.3
2014-Oct-22 03:31N 36°47' E 024°35'0 0.0
2014-Oct-22 02:13N 36°47' E 024°35'0 0.0
2014-Oct-22 01:13N 36°47' E 024°35'0 0.0
2014-Oct-22 00:25N 36°47' E 024°35'0 0.0
2014-Oct-21 23:31N 36°47' E 024°35'0 0.0
2014-Oct-21 22:31N 36°47' E 024°35'0 0.0
2014-Oct-21 21:31N 36°47' E 024°35'0 0.0
2014-Oct-21 20:31N 36°47' E 024°35'0 0.0
2014-Oct-21 19:19N 36°47' E 024°35'0 0.0
2014-Oct-21 18:31N 36°47' E 024°35'0 0.0
2014-Oct-21 17:19N 36°47' E 024°35'0 0.0
2014-Oct-21 16:31N 36°47' E 024°35'0 0.0
2014-Oct-21 15:07N 36°47' E 024°35'0 0.0
2014-Oct-21 14:13N 36°47' E 024°35'0 0.0
2014-Oct-21 13:19N 36°47' E 024°35'3 1.4
2014-Oct-21 11:24N 36°46' E 024°32'3 2.2
2014-Oct-21 10:13N 36°47' E 024°35'0 0.0
2014-Oct-21 08:31N 36°47' E 024°35'0 0.0
2014-Oct-21 06:17N 36°47' E 024°35'0 0.0
2014-Oct-21 05:23N 36°47' E 024°35'1 1.5
2014-Oct-21 04:31N 36°46' E 024°34'1 1.4
2014-Oct-21 03:33N 36°47' E 024°35'3 0.2
2014-Oct-20 11:28N 36°46' E 024°32'3 2.2
2014-Oct-20 10:10N 36°47' E 024°35'0 0.2
2014-Oct-20 08:25N 36°47' E 024°35'0 0.0
2014-Oct-19 16:17N 36°47' E 024°35'0 0.0
2014-Oct-19 11:24N 36°47' E 024°35'0 0.0
2014-Oct-19 10:29N 36°47' E 024°35'0 0.0
2014-Oct-19 09:23N 36°47' E 024°35'0 0.0
2014-Oct-19 08:24N 36°47' E 024°35'0 0.0
2014-Oct-19 06:33N 36°47' E 024°35'0 0.0
2014-Oct-19 04:30N 36°47' E 024°35'0 0.0
2014-Oct-19 03:30N 36°47' E 024°35'0 0.0
2014-Oct-19 02:29N 36°47' E 024°35'0 0.0
2014-Oct-19 00:12N 36°47' E 024°35'0 0.0
2014-Oct-18 22:15N 36°47' E 024°35'0 0.0
2014-Oct-18 19:30N 36°47' E 024°35'0 0.0
2014-Oct-18 17:30N 36°47' E 024°35'0 0.0
2014-Oct-18 16:12N 36°47' E 024°35'0 0.0
2014-Oct-18 15:06N 36°47' E 024°35'0 0.5
2014-Oct-18 14:23N 36°47' E 024°35'0 0.3
2014-Oct-18 13:33N 36°47' E 024°35'0 0.1
2014-Oct-18 12:29N 36°47' E 024°35'0 0.0
2014-Oct-18 11:29N 36°47' E 024°35'0 0.0
2014-Oct-18 10:28N 36°47' E 024°35'0 0.0
2014-Oct-18 09:23N 36°47' E 024°35'0 0.0
2014-Oct-18 08:27N 36°47' E 024°35'0 0.0
2014-Oct-18 07:03N 36°47' E 024°35'0 0.0
2014-Oct-18 06:33N 36°47' E 024°35'0 0.0
2014-Oct-18 05:21N 36°47' E 024°35'0 0.0
2014-Oct-18 04:27N 36°47' E 024°35'0 0.0
2014-Oct-18 03:33N 36°47' E 024°35'0 0.0
2014-Oct-18 02:27N 36°47' E 024°35'0 0.0
2014-Oct-18 01:27N 36°47' E 024°35'0 0.0
2014-Oct-18 00:27N 36°47' E 024°35'0 0.0
2014-Oct-17 23:33N 36°47' E 024°35'0 0.0
2014-Oct-17 22:33N 36°47' E 024°35'0 0.0
2014-Oct-17 21:27N 36°47' E 024°35'0 0.0
2014-Oct-17 20:21N 36°47' E 024°35'0 0.0
2014-Oct-17 18:27N 36°47' E 024°35'0 0.0
2014-Oct-17 17:27N 36°47' E 024°35'0 0.0
2014-Oct-17 16:21N 36°47' E 024°35'0 0.0
2014-Oct-17 14:32N 36°47' E 024°35'0 0.0
2014-Oct-17 13:27N 36°47' E 024°35'1 0.5
2014-Oct-17 11:18N 36°46' E 024°34'0 0.2
2014-Oct-17 08:23N 36°47' E 024°35'1 0.6
2014-Oct-17 07:33N 36°47' E 024°35'0 0.1
2014-Oct-17 06:26N 36°47' E 024°35'0 0.0
2014-Oct-17 05:14N 36°47' E 024°35'2 3.0
2014-Oct-17 04:26N 36°46' E 024°32'2 1.8
2014-Oct-17 03:07N 36°47' E 024°35'0 0.0
2014-Oct-17 02:25N 36°47' E 024°35'0 0.0
2014-Oct-17 01:25N 36°47' E 024°35'0 0.0
2014-Oct-17 00:31N 36°47' E 024°35'0 0.0
2014-Oct-16 23:24N 36°47' E 024°35'0 0.0
2014-Oct-16 22:13N 36°47' E 024°35'0 0.0
2014-Oct-16 21:07N 36°47' E 024°35'0 0.0
2014-Oct-16 20:31N 36°47' E 024°35'0 0.0
2014-Oct-16 19:25N 36°47' E 024°35'0 0.0
2014-Oct-16 18:25N 36°47' E 024°35'0 0.0
2014-Oct-16 17:25N 36°47' E 024°35'0 0.0
2014-Oct-16 16:31N 36°47' E 024°35'0 0.0
2014-Oct-16 15:25N 36°47' E 024°35'0 0.0
2014-Oct-16 14:13N 36°47' E 024°35'0 0.0
2014-Oct-16 13:30N 36°47' E 024°35'0 0.0
2014-Oct-16 12:19N 36°47' E 024°35'2 1.9
2014-Oct-16 11:19N 36°46' E 024°33'2 0.7
2014-Oct-16 08:25N 36°47' E 024°35'0 0.0
2014-Oct-16 07:26N 36°47' E 024°35'0 0.0
2014-Oct-16 05:32N 36°47' E 024°35'0 0.0
2014-Oct-15 20:33N 36°47' E 024°35'3 0.3
2014-Oct-15 11:33N 36°46' E 024°32'3 2.1
2014-Oct-15 10:16N 36°47' E 024°35'0 0.0
2014-Oct-15 09:28N 36°47' E 024°35'0 0.0
2014-Oct-15 08:28N 36°47' E 024°35'1 0.2
2014-Oct-15 04:33N 36°46' E 024°34'1 0.9
2014-Oct-15 03:33N 36°47' E 024°35'0 0.0
2014-Oct-15 02:33N 36°47' E 024°35'0 0.0
2014-Oct-15 01:32N 36°47' E 024°35'0 0.0
2014-Oct-15 00:27N 36°47' E 024°35'0 0.0
2014-Oct-14 23:33N 36°47' E 024°35'0 0.0
2014-Oct-14 22:27N 36°47' E 024°35'0 0.0
2014-Oct-14 21:03N 36°47' E 024°35'0 0.0
2014-Oct-14 20:20N 36°47' E 024°35'0 0.0
2014-Oct-14 18:33N 36°47' E 024°35'0 0.0
2014-Oct-14 17:27N 36°47' E 024°35'0 0.0
2014-Oct-14 16:27N 36°47' E 024°35'0 0.0
2014-Oct-14 15:27N 36°47' E 024°35'0 0.0
2014-Oct-14 14:27N 36°47' E 024°35'0 0.0
2014-Oct-14 13:33N 36°47' E 024°35'0 0.0
2014-Oct-14 12:33N 36°47' E 024°35'2 1.3
2014-Oct-14 11:16N 36°46' E 024°33'1 0.4
2014-Oct-14 08:33N 36°47' E 024°35'1 0.3
2014-Oct-14 06:25N 36°47' E 024°35'1 0.6
2014-Oct-14 04:33N 36°46' E 024°34'1 1.0
2014-Oct-14 03:28N 36°47' E 024°35'0 0.0
2014-Oct-14 02:23N 36°47' E 024°35'0 0.0
2014-Oct-14 01:23N 36°47' E 024°35'0 0.0
2014-Oct-14 00:29N 36°47' E 024°35'0 0.0
2014-Oct-13 23:23N 36°47' E 024°35'0 0.0
2014-Oct-13 22:28N 36°47' E 024°35'0 0.0
2014-Oct-13 21:23N 36°47' E 024°35'0 0.0
2014-Oct-13 20:23N 36°47' E 024°35'0 0.0
2014-Oct-13 19:29N 36°47' E 024°35'0 0.0
2014-Oct-13 18:29N 36°47' E 024°35'0 0.0
2014-Oct-13 17:29N 36°47' E 024°35'0 0.0
2014-Oct-13 16:23N 36°47' E 024°35'0 0.0
2014-Oct-13 15:29N 36°47' E 024°35'0 0.0
2014-Oct-13 14:10N 36°47' E 024°35'0 0.0
2014-Oct-13 13:29N 36°47' E 024°35'0 0.0
2014-Oct-13 12:29N 36°47' E 024°35'3 2.5
2014-Oct-13 11:24N 36°46' E 024°32'3 2.7
2014-Oct-13 10:25N 36°47' E 024°35'0 0.0
2014-Oct-13 09:24N 36°47' E 024°35'0 0.2
2014-Oct-13 08:24N 36°47' E 024°35'0 0.1
2014-Oct-13 07:33N 36°47' E 024°35'1 0.4
2014-Oct-13 04:33N 36°46' E 024°34'1 1.1
2014-Oct-13 03:24N 36°47' E 024°35'0 0.0
2014-Oct-13 02:30N 36°47' E 024°35'0 0.0
2014-Oct-13 01:29N 36°47' E 024°35'0 0.0
2014-Oct-13 00:30N 36°47' E 024°35'0 0.0
2014-Oct-12 23:30N 36°47' E 024°35'  
Track history (hours):
 
Tides and Currents Weather Stations Pressure Air Temp Water Temp Dewpoint Dewpoint Depression Visibility Wind Speed Wind Dir Waves Ship Positions

Panagia Faneromeni

Last reported at 2014-Oct-22 23:23 UTC. Time now 2014-Oct-23 00:35 UTC.
Position N 36°46' E 024°32'.

Length 33 m; draft 2 m.

Type: Ship. MMSI: 237071900.

Date/timePositionNaut miles runAvg speedWind from/ knotsBaromVisibWave heightAir tempDewpointWater temp
2014-Oct-22 23:23N 36°46' E 024°32'0 0.0
2014-Oct-22 22:28N 36°46' E 024°32'0 0.0
2014-Oct-22 21:31N 36°46' E 024°32'0 0.0
2014-Oct-22 20:29N 36°46' E 024°32'0 0.0
2014-Oct-22 19:17N 36°46' E 024°32'0 0.0
2014-Oct-22 18:17N 36°46' E 024°32'0 0.0
2014-Oct-22 17:29N 36°46' E 024°32'0 0.0
2014-Oct-22 16:29N 36°46' E 024°32'0 0.0
2014-Oct-22 15:29N 36°46' E 024°32'0 0.0
2014-Oct-22 14:29N 36°46' E 024°32'0 0.0
2014-Oct-22 13:29N 36°46' E 024°32'0 0.0
2014-Oct-22 12:28N 36°46' E 024°32'0 0.0
2014-Oct-22 11:29N 36°46' E 024°32'3 0.5
2014-Oct-22 06:15N 36°47' E 024°35'0 0.0
2014-Oct-22 05:33N 36°47' E 024°35'1 1.3
2014-Oct-22 04:32N 36°46' E 024°34'1 1.3
2014-Oct-22 03:31N 36°47' E 024°35'0 0.0
2014-Oct-22 02:13N 36°47' E 024°35'0 0.0
2014-Oct-22 01:13N 36°47' E 024°35'0 0.0
2014-Oct-22 00:25N 36°47' E 024°35'0 0.0
2014-Oct-21 23:31N 36°47' E 024°35'0 0.0
2014-Oct-21 22:31N 36°47' E 024°35'0 0.0
2014-Oct-21 21:31N 36°47' E 024°35'0 0.0
2014-Oct-21 20:31N 36°47' E 024°35'0 0.0
2014-Oct-21 19:19N 36°47' E 024°35'0 0.0
2014-Oct-21 18:31N 36°47' E 024°35'0 0.0
2014-Oct-21 17:19N 36°47' E 024°35'0 0.0
2014-Oct-21 16:31N 36°47' E 024°35'0 0.0
2014-Oct-21 15:07N 36°47' E 024°35'0 0.0
2014-Oct-21 14:13N 36°47' E 024°35'0 0.0
2014-Oct-21 13:19N 36°47' E 024°35'3 1.4
2014-Oct-21 11:24N 36°46' E 024°32'3 2.2
2014-Oct-21 10:13N 36°47' E 024°35'0 0.0
2014-Oct-21 08:31N 36°47' E 024°35'0 0.0
2014-Oct-21 06:17N 36°47' E 024°35'0 0.0
2014-Oct-21 05:23N 36°47' E 024°35'1 1.5
2014-Oct-21 04:31N 36°46' E 024°34'1 1.4
2014-Oct-21 03:33N 36°47' E 024°35'3 0.2
2014-Oct-20 11:28N 36°46' E 024°32'3 2.2
2014-Oct-20 10:10N 36°47' E 024°35'0 0.2
2014-Oct-20 08:25N 36°47' E 024°35'0 0.0
2014-Oct-19 16:17N 36°47' E 024°35'0 0.0
2014-Oct-19 11:24N 36°47' E 024°35'0 0.0
2014-Oct-19 10:29N 36°47' E 024°35'0 0.0
2014-Oct-19 09:23N 36°47' E 024°35'0 0.0
2014-Oct-19 08:24N 36°47' E 024°35'0 0.0
2014-Oct-19 06:33N 36°47' E 024°35'0 0.0
2014-Oct-19 04:30N 36°47' E 024°35'0 0.0
2014-Oct-19 03:30N 36°47' E 024°35'0 0.0
2014-Oct-19 02:29N 36°47' E 024°35'0 0.0
2014-Oct-19 00:12N 36°47' E 024°35'0 0.0
2014-Oct-18 22:15N 36°47' E 024°35'0 0.0
2014-Oct-18 19:30N 36°47' E 024°35'0 0.0
2014-Oct-18 17:30N 36°47' E 024°35'0 0.0
2014-Oct-18 16:12N 36°47' E 024°35'0 0.0
2014-Oct-18 15:06N 36°47' E 024°35'0 0.5
2014-Oct-18 14:23N 36°47' E 024°35'0 0.3
2014-Oct-18 13:33N 36°47' E 024°35'0 0.1
2014-Oct-18 12:29N 36°47' E 024°35'0 0.0
2014-Oct-18 11:29N 36°47' E 024°35'0 0.0
2014-Oct-18 10:28N 36°47' E 024°35'0 0.0
2014-Oct-18 09:23N 36°47' E 024°35'0 0.0
2014-Oct-18 08:27N 36°47' E 024°35'0 0.0
2014-Oct-18 07:03N 36°47' E 024°35'0 0.0
2014-Oct-18 06:33N 36°47' E 024°35'0 0.0
2014-Oct-18 05:21N 36°47' E 024°35'0 0.0
2014-Oct-18 04:27N 36°47' E 024°35'0 0.0
2014-Oct-18 03:33N 36°47' E 024°35'0 0.0
2014-Oct-18 02:27N 36°47' E 024°35'0 0.0
2014-Oct-18 01:27N 36°47' E 024°35'0 0.0
2014-Oct-18 00:27N 36°47' E 024°35'0 0.0
2014-Oct-17 23:33N 36°47' E 024°35'0 0.0
2014-Oct-17 22:33N 36°47' E 024°35'0 0.0
2014-Oct-17 21:27N 36°47' E 024°35'0 0.0
2014-Oct-17 20:21N 36°47' E 024°35'0 0.0
2014-Oct-17 18:27N 36°47' E 024°35'0 0.0
2014-Oct-17 17:27N 36°47' E 024°35'0 0.0
2014-Oct-17 16:21N 36°47' E 024°35'0 0.0
2014-Oct-17 14:32N 36°47' E 024°35'0 0.0
2014-Oct-17 13:27N 36°47' E 024°35'1 0.5
2014-Oct-17 11:18N 36°46' E 024°34'0 0.2
2014-Oct-17 08:23N 36°47' E 024°35'1 0.6
2014-Oct-17 07:33N 36°47' E 024°35'0 0.1
2014-Oct-17 06:26N 36°47' E 024°35'0 0.0
2014-Oct-17 05:14N 36°47' E 024°35'2 3.0
2014-Oct-17 04:26N 36°46' E 024°32'2 1.8
2014-Oct-17 03:07N 36°47' E 024°35'0 0.0
2014-Oct-17 02:25N 36°47' E 024°35'0 0.0
2014-Oct-17 01:25N 36°47' E 024°35'0 0.0
2014-Oct-17 00:31N 36°47' E 024°35'0 0.0
2014-Oct-16 23:24N 36°47' E 024°35'0 0.0
2014-Oct-16 22:13N 36°47' E 024°35'0 0.0
2014-Oct-16 21:07N 36°47' E 024°35'0 0.0
2014-Oct-16 20:31N 36°47' E 024°35'0 0.0
2014-Oct-16 19:25N 36°47' E 024°35'0 0.0
2014-Oct-16 18:25N 36°47' E 024°35'0 0.0
2014-Oct-16 17:25N 36°47' E 024°35'0 0.0
2014-Oct-16 16:31N 36°47' E 024°35'0 0.0
2014-Oct-16 15:25N 36°47' E 024°35'0 0.0
2014-Oct-16 14:13N 36°47' E 024°35'0 0.0
2014-Oct-16 13:30N 36°47' E 024°35'0 0.0
2014-Oct-16 12:19N 36°47' E 024°35'2 1.9
2014-Oct-16 11:19N 36°46' E 024°33'2 0.7
2014-Oct-16 08:25N 36°47' E 024°35'0 0.0
2014-Oct-16 07:26N 36°47' E 024°35'0 0.0
2014-Oct-16 05:32N 36°47' E 024°35'0 0.0
2014-Oct-15 20:33N 36°47' E 024°35'3 0.3
2014-Oct-15 11:33N 36°46' E 024°32'3 2.1
2014-Oct-15 10:16N 36°47' E 024°35'0 0.0
2014-Oct-15 09:28N 36°47' E 024°35'0 0.0
2014-Oct-15 08:28N 36°47' E 024°35'1 0.2
2014-Oct-15 04:33N 36°46' E 024°34'1 0.9
2014-Oct-15 03:33N 36°47' E 024°35'0 0.0
2014-Oct-15 02:33N 36°47' E 024°35'0 0.0
2014-Oct-15 01:32N 36°47' E 024°35'0 0.0
2014-Oct-15 00:27N 36°47' E 024°35'0 0.0
2014-Oct-14 23:33N 36°47' E 024°35'0 0.0
2014-Oct-14 22:27N 36°47' E 024°35'0 0.0
2014-Oct-14 21:03N 36°47' E 024°35'0 0.0
2014-Oct-14 20:20N 36°47' E 024°35'0 0.0
2014-Oct-14 18:33N 36°47' E 024°35'0 0.0
2014-Oct-14 17:27N 36°47' E 024°35'0 0.0
2014-Oct-14 16:27N 36°47' E 024°35'0 0.0
2014-Oct-14 15:27N 36°47' E 024°35'0 0.0
2014-Oct-14 14:27N 36°47' E 024°35'0 0.0
2014-Oct-14 13:33N 36°47' E 024°35'0 0.0
2014-Oct-14 12:33N 36°47' E 024°35'2 1.3
2014-Oct-14 11:16N 36°46' E 024°33'1 0.4
2014-Oct-14 08:33N 36°47' E 024°35'1 0.3
2014-Oct-14 06:25N 36°47' E 024°35'1 0.6
2014-Oct-14 04:33N 36°46' E 024°34'1 1.0
2014-Oct-14 03:28N 36°47' E 024°35'0 0.0
2014-Oct-14 02:23N 36°47' E 024°35'0 0.0
2014-Oct-14 01:23N 36°47' E 024°35'0 0.0
2014-Oct-14 00:29N 36°47' E 024°35'0 0.0
2014-Oct-13 23:23N 36°47' E 024°35'0 0.0
2014-Oct-13 22:28N 36°47' E 024°35'0 0.0
2014-Oct-13 21:23N 36°47' E 024°35'0 0.0
2014-Oct-13 20:23N 36°47' E 024°35'0 0.0
2014-Oct-13 19:29N 36°47' E 024°35'0 0.0
2014-Oct-13 18:29N 36°47' E 024°35'0 0.0
2014-Oct-13 17:29N 36°47' E 024°35'0 0.0
2014-Oct-13 16:23N 36°47' E 024°35'0 0.0
2014-Oct-13 15:29N 36°47' E 024°35'0 0.0
2014-Oct-13 14:10N 36°47' E 024°35'0 0.0
2014-Oct-13 13:29N 36°47' E 024°35'0 0.0
2014-Oct-13 12:29N 36°47' E 024°35'3 2.5
2014-Oct-13 11:24N 36°46' E 024°32'3 2.7
2014-Oct-13 10:25N 36°47' E 024°35'0 0.0
2014-Oct-13 09:24N 36°47' E 024°35'0 0.2
2014-Oct-13 08:24N 36°47' E 024°35'0 0.1
2014-Oct-13 07:33N 36°47' E 024°35'1 0.4
2014-Oct-13 04:33N 36°46' E 024°34'1 1.1
2014-Oct-13 03:24N 36°47' E 024°35'0 0.0
2014-Oct-13 02:30N 36°47' E 024°35'0 0.0
2014-Oct-13 01:29N 36°47' E 024°35'0 0.0
2014-Oct-13 00:30N 36°47' E 024°35'0 0.0
2014-Oct-12 23:30N 36°47' E 024°35'  

Dump ship's entire track history